This is the latest recevied weather packets stored in our database for station/object KC5TIL-3. If no packets are shown the sender has not sent any weather packets the latest 1 day(s).
| Time | Temp. | Humidity | Pressure | Rain* | Wind** | Luminosity | Snow |
|---|---|---|---|---|---|---|---|
| 1778046812 | 16.67° C | 50% | 1007.8 hPa | 0 mm | 4.47 m/s, 33° | - | - |
| 1778046217 | 16.67° C | 50% | 1007.8 hPa | 0 mm | 3.13 m/s, 35° | - | - |
| 1778045916 | 16.67° C | 50% | 1007.8 hPa | 0 mm | 4.47 m/s, 4° | - | - |
| 1778045318 | 17.22° C | 49% | 1007.8 hPa | 0 mm | 4.02 m/s, 19° | - | - |
| 1778045017 | 17.22° C | 48% | 1007.8 hPa | 0 mm | 4.02 m/s, 21° | - | - |
| 1778044421 | 17.22° C | 48% | 1007.8 hPa | 0 mm | 4.02 m/s, 28° | - | - |
| 1778043822 | 17.78° C | 47% | 1007.8 hPa | 0 mm | 4.02 m/s, 36° | - | - |
| 1778042626 | 17.78° C | 47% | 1006.8 hPa | 0 mm | 4.02 m/s, 15° | - | - |
| 1778041724 | 18.33° C | 47% | 1006.8 hPa | 0 mm | 4.47 m/s, 24° | - | - |
| 1778041422 | 18.33° C | 47% | 1006.8 hPa | 0 mm | 3.58 m/s, 5° | - | - |
| 1778041125 | 18.33° C | 46% | 1007.8 hPa | 0 mm | 3.58 m/s, 81° | - | - |
| 1778040826 | 18.89° C | 46% | 1007.8 hPa | 0 mm | 4.47 m/s, 31° | - | - |
| 1778039928 | 19.44° C | 44% | 1006.8 hPa | 0 mm | 4.02 m/s, 335° | - | - |
| 1778039627 | 19.44° C | 43% | 1006.8 hPa | 0 mm | 3.13 m/s, 20° | - | - |
| 1778039330 | 19.44° C | 43% | 1006.8 hPa | 0 mm | 3.13 m/s, 343° | - | - |
| 1778039031 | 19.44° C | 43% | 1006.8 hPa | 0 mm | 3.13 m/s, 16° | - | - |
| 1778038725 | 19.44° C | 42% | 1006.8 hPa | 0 mm | 3.13 m/s, 34° | - | - |
| 1778038423 | 19.44° C | 42% | 1006.8 hPa | 0 mm | 3.58 m/s, 17° | - | - |
| 1778038124 | 19.44° C | 41% | 1006.8 hPa | 0 mm | 4.02 m/s, 31° | - | - |
| 1778037525 | 20° C | 40% | 1005.8 hPa | 0 mm | 4.02 m/s, 334° | - | - |
| 1778036925 | 20° C | 40% | 1005.8 hPa | 0 mm | 4.02 m/s, 38° | - | - |
| 1778036627 | 20° C | 39% | 1005.8 hPa | 0 mm | 4.47 m/s, 4° | - | - |
| 1778036330 | 20° C | 38% | 1005.8 hPa | 0 mm | 3.58 m/s, 21° | - | - |
| 1778035725 | 20.56° C | 37% | 1005.8 hPa | 0 mm | 4.47 m/s, 25° | - | - |
| 1778035426 | 20.56° C | 37% | 1005.8 hPa | 0 mm | 5.36 m/s, 10° | - | - |
* Rain latest hour (hover to see other rain measurements)
** Current wind speed in m/s (hover to see current wind gust speed)